Weather History for Petersburg, AK

Change the Weather History Date:

Saturday, November 5, 2011

  Actual Average Record
Temperature  
Mean Temperature 36 °F -  
Max Temperature 39 °F 40 °F 53 °F (2002)
Min Temperature 33 °F 32 °F 19 °F (2006)
Degree Days  
Heating Degree Days 29    
Moisture  
Dew Point 34 °F    
Average Humidity 94    
Maximum Humidity 100    
Minimum Humidity 87    
Precipitation  
Precipitation 0.00 in - - ()
Sea Level Pressure  
Sea Level Pressure 29.61 in    
Wind  
Wind Speed 3 mph (WSW)    
Max Wind Speed 6 mph    
Max Gust Speed -    
Visibility 9 miles    
Events      
Averages and records for this station are not official NWS values.
T = Trace of Precipitation, MM = Missing Value Source: NWS Daily Summary

Daily Weather History Graph

Daily Weather History Graph

Search for Another Location

Airport:

Trip Planner

Search our weather history database for the weather conditions in past years. The results will help you decide how hot, cold, wet, or windy it might be!

Date:

Astronomy

Nov. 05, 2011 Rise Set
Actual Time 8:10 AM AKDT 4:59 PM AKDT
Civil Twilight 7:28 AM AKDT 5:41 PM AKDT
Nautical Twilight 6:43 AM AKDT 6:26 PM AKDT
Astronomical Twilight 5:59 AM AKDT 7:10 PM AKDT
Moon 3:03 PM AKDT (11/5) 2:37 AM AKDT (11/5)
Length of Visible Light 10h 12m
Length of Day
8h 49m
Waxing Gibbous, 79% of the Moon is Illuminated
Nov 5
Waxing Gibbous
Nov 10
Full
Nov 18
Last Quarter
Nov 24
New
Dec 2
First Quarter

Hourly Weather History & Observations

Time (AKDT) Temp. Windchill Dew Point Humidity Pressure Visibility Wind Dir Wind Speed Gust Speed Precip Events Conditions
12:16 AM 35.6 °F 31.7 °F 33.8 °F 93% 29.45 in 9.0 mi WSW 4.6 mph - N/A   Overcast
12:36 AM 33.8 °F 28.6 °F 33.8 °F 100% 29.45 in 10.0 mi WSW 5.8 mph - N/A   Overcast
12:56 AM 35.6 °F 31.7 °F 33.8 °F 93% 29.46 in 10.0 mi SW 4.6 mph - N/A   Overcast
1:16 AM 33.8 °F 29.6 °F 32.0 °F 93% 29.46 in 10.0 mi SW 4.6 mph - N/A   Overcast
1:36 AM 35.6 °F 31.7 °F 33.8 °F 93% 29.46 in 10.0 mi WSW 4.6 mph - N/A   Overcast
1:56 AM 35.6 °F - 33.8 °F 93% 29.46 in 10.0 mi Calm Calm - N/A   Overcast
2:16 AM 33.8 °F 30.8 °F 33.8 °F 100% 29.46 in 10.0 mi West 3.5 mph - N/A   Overcast
2:36 AM 35.6 °F - 33.8 °F 93% 29.46 in 10.0 mi Calm Calm - N/A   Overcast
2:56 AM 35.6 °F 30.7 °F 33.8 °F 93% 29.47 in 10.0 mi West 5.8 mph - N/A   Overcast
3:16 AM 33.8 °F 30.8 °F 32.0 °F 93% 29.47 in 10.0 mi West 3.5 mph - N/A   Overcast
3:56 AM 33.8 °F 30.8 °F 32.0 °F 93% 29.48 in 10.0 mi West 3.5 mph - N/A   Overcast
4:16 AM 33.8 °F 29.6 °F 32.0 °F 93% 29.48 in 10.0 mi West 4.6 mph - N/A   Overcast
4:36 AM 33.8 °F 29.6 °F 32.0 °F 93% 29.48 in 10.0 mi WSW 4.6 mph - N/A   Mostly Cloudy
4:56 AM 33.8 °F - 32.0 °F 93% 29.49 in 10.0 mi Calm Calm - N/A   Overcast
5:16 AM 33.8 °F 29.6 °F 33.8 °F 100% 29.49 in 10.0 mi West 4.6 mph - N/A   Overcast
5:36 AM 33.8 °F - 32.0 °F 93% 29.50 in 10.0 mi Calm Calm - N/A   Overcast
5:56 AM 33.8 °F 30.8 °F 32.0 °F 93% 29.50 in 10.0 mi West 3.5 mph - N/A   Overcast
6:16 AM 33.8 °F 30.8 °F 32.0 °F 93% 29.51 in 10.0 mi WSW 3.5 mph - N/A   Overcast
6:36 AM 33.8 °F - 32.0 °F 93% 29.51 in 10.0 mi Calm Calm - N/A   Overcast
6:56 AM 33.8 °F 30.8 °F 33.8 °F 100% 29.52 in 5.0 mi West 3.5 mph - N/A   Overcast
7:16 AM 33.8 °F 30.8 °F 32.0 °F 93% 29.52 in 5.0 mi West 3.5 mph - N/A   Overcast
7:36 AM 33.8 °F 29.6 °F 32.0 °F 93% 29.53 in 5.0 mi West 4.6 mph - N/A   Overcast
7:56 AM 33.8 °F - 32.0 °F 93% 29.54 in 7.0 mi Calm Calm - N/A   Overcast
8:16 AM 33.8 °F 30.8 °F 33.8 °F 100% 29.55 in 7.0 mi West 3.5 mph - N/A   Overcast
8:36 AM 33.8 °F - 33.8 °F 100% 29.56 in 7.0 mi Calm Calm - N/A   Overcast
8:56 AM 33.8 °F 30.8 °F 33.8 °F 100% 29.57 in 7.0 mi West 3.5 mph - N/A   Overcast
9:16 AM 33.8 °F - 33.8 °F 100% 29.57 in 7.0 mi Calm Calm - N/A   Overcast
9:56 AM 35.6 °F - 33.8 °F 93% 29.59 in 10.0 mi Calm Calm - N/A   Overcast
10:16 AM 35.6 °F - 33.8 °F 93% 29.60 in 10.0 mi Calm Calm - N/A   Overcast
10:36 AM 35.6 °F - 33.8 °F 93% 29.60 in 10.0 mi Calm Calm - N/A   Overcast
10:56 AM 35.6 °F - 35.6 °F 100% 29.61 in 10.0 mi Calm Calm - N/A   Overcast
11:16 AM 37.4 °F - 35.6 °F 93% 29.62 in 10.0 mi Calm Calm - N/A   Overcast
11:36 AM 37.4 °F - 35.6 °F 93% 29.63 in 10.0 mi Calm Calm - N/A   Overcast
11:56 AM 37.4 °F - 35.6 °F 93% 29.63 in 10.0 mi Calm Calm - N/A   Overcast
12:16 PM 37.4 °F 34.9 °F 35.6 °F 93% 29.64 in 10.0 mi West 3.5 mph - N/A   Overcast
12:36 PM 37.4 °F - 35.6 °F 93% 29.64 in 10.0 mi Calm Calm - N/A   Overcast
12:56 PM 39.2 °F - 35.6 °F 87% 29.65 in 10.0 mi Calm Calm - N/A   Overcast
1:16 PM 39.2 °F 37.0 °F 35.6 °F 87% 29.65 in 10.0 mi WSW 3.5 mph - N/A   Overcast
1:36 PM 39.2 °F - 35.6 °F 87% 29.66 in 10.0 mi Calm Calm - N/A   Overcast
1:56 PM 39.2 °F 37.0 °F 35.6 °F 87% 29.66 in 10.0 mi West 3.5 mph - N/A   Overcast
2:16 PM 39.2 °F 37.0 °F 37.4 °F 93% 29.67 in 10.0 mi WSW 3.5 mph - N/A   Overcast
2:36 PM 39.2 °F 37.0 °F 37.4 °F 93% 29.67 in 10.0 mi WSW 3.5 mph - N/A   Overcast
2:56 PM 39.2 °F - 37.4 °F 93% 29.68 in 10.0 mi Calm Calm - N/A   Overcast
3:16 PM 39.2 °F - 37.4 °F 93% 29.68 in 10.0 mi Calm Calm - N/A   Overcast
3:36 PM 39.2 °F - 35.6 °F 87% 29.69 in 10.0 mi Calm Calm - N/A   Overcast
3:56 PM 39.2 °F - 37.4 °F 93% 29.69 in 10.0 mi Calm Calm - N/A   Overcast
4:16 PM 39.2 °F - 37.4 °F 93% 29.70 in 10.0 mi Calm Calm - N/A   Overcast
4:36 PM 37.4 °F - 35.6 °F 93% 29.70 in 10.0 mi Calm Calm - N/A   Overcast
4:56 PM 37.4 °F - 35.6 °F 93% 29.71 in 10.0 mi Calm Calm - N/A   Mostly Cloudy
5:16 PM 35.6 °F - 33.8 °F 93% 29.72 in 10.0 mi Calm Calm - N/A   Mostly Cloudy
5:36 PM 35.6 °F - 35.6 °F 100% 29.72 in 10.0 mi Calm Calm - N/A   Mostly Cloudy
5:56 PM 35.6 °F - 35.6 °F 100% 29.72 in 10.0 mi Calm Calm - N/A   Mostly Cloudy
6:16 PM 35.6 °F 32.8 °F 35.6 °F 100% 29.73 in 10.0 mi South 3.5 mph - N/A   Mostly Cloudy
6:36 PM 35.6 °F 32.8 °F 35.6 °F 100% 29.74 in 10.0 mi South 3.5 mph - N/A   Mostly Cloudy
6:56 PM 35.6 °F - 33.8 °F 93% 29.74 in 10.0 mi Calm Calm - N/A   Overcast
7:16 PM 35.6 °F - 33.8 °F 93% 29.75 in 10.0 mi Calm Calm - N/A   Overcast
7:36 PM 35.6 °F - 33.8 °F 93% 29.76 in 10.0 mi Calm Calm - N/A   Overcast
7:56 PM 35.6 °F - 35.6 °F 100% 29.76 in 5.0 mi Calm Calm - N/A   Overcast
8:16 PM 35.6 °F - 33.8 °F 93% 29.77 in 5.0 mi Calm Calm - N/A   Overcast
8:36 PM 35.6 °F - 35.6 °F 100% 29.77 in 5.0 mi Calm Calm - N/A   Overcast
8:56 PM 35.6 °F - 33.8 °F 93% 29.78 in 4.0 mi Calm Calm - N/A   Overcast
9:16 PM 35.6 °F - 33.8 °F 93% 29.79 in 4.0 mi Calm Calm - N/A   Overcast
9:36 PM 35.6 °F - 33.8 °F 93% 29.79 in 4.0 mi Calm Calm - N/A   Overcast
9:56 PM 35.6 °F - 33.8 °F 93% 29.81 in 5.0 mi Calm Calm - N/A   Overcast
10:16 PM 35.6 °F - 35.6 °F 100% 29.81 in 8.0 mi Calm Calm - N/A   Overcast
10:36 PM 35.6 °F - 33.8 °F 93% 29.81 in 5.0 mi Calm Calm - N/A   Overcast
10:56 PM 35.6 °F - 33.8 °F 93% 29.81 in 9.0 mi Calm Calm - N/A   Overcast
11:16 PM 35.6 °F - 33.8 °F 93% 29.81 in 10.0 mi Calm Calm - N/A   Overcast
11:36 PM 35.6 °F - 33.8 °F 93% 29.82 in 7.0 mi Calm Calm - N/A   Overcast
11:56 PM 35.6 °F - 33.8 °F 93% 29.82 in 10.0 mi Calm Calm - N/A   Overcast